This is the latest recevied weather packets stored in our database for station/object SP8EBC-11. If no packets are shown the sender has not sent any weather packets the latest 1 day(s).
| Time | Temp. | Humidity | Pressure | Rain* | Wind** | Luminosity | Snow |
|---|---|---|---|---|---|---|---|
| 1836274832 | 13.89° C | 10% | 1006.2 hPa | - | 0.89 m/s, 198° | - | - |
| 1836274712 | 13.89° C | 10% | 1006.2 hPa | - | 1.34 m/s, 197° | - | - |
| 1836274592 | 13.89° C | 10% | 1006.2 hPa | - | 1.34 m/s, 198° | - | - |
| 1836274564 | 13.89° C | 10% | 1006.3 hPa | - | 0.89 m/s, 195° | - | - |
| 1836274472 | 13.89° C | 10% | 1006.3 hPa | - | 1.34 m/s, 198° | - | - |
| 1836274444 | 13.89° C | 10% | 1006.3 hPa | - | 0.89 m/s, 198° | - | - |
| 1836274352 | 13.89° C | 10% | 1006.3 hPa | - | 1.34 m/s, 198° | - | - |
| 1836274323 | 13.89° C | 10% | 1006.3 hPa | - | 0.89 m/s, 198° | - | - |
| 1836274232 | 13.33° C | 10% | 1006.3 hPa | - | 1.34 m/s, 198° | - | - |
| 1836274202 | 13.89° C | 10% | 1006.2 hPa | - | 0.89 m/s, 197° | - | - |
| 1836274112 | 13.33° C | 10% | 1006.3 hPa | - | 1.34 m/s, 196° | - | - |
| 1836273992 | 13.33° C | 10% | 1006.2 hPa | - | 1.34 m/s, 193° | - | - |
| 1836273872 | 13.33° C | 10% | 1006.2 hPa | - | 1.34 m/s, 191° | - | - |
| 1778014706 | 12.78° C | 70% | 991.7 hPa | - | 4.92 m/s, 41° | - | - |
| 1778014585 | 12.78° C | 70% | 991.7 hPa | - | 5.36 m/s, 35° | - | - |
| 1778014466 | 12.78° C | 70% | 991.7 hPa | - | 5.36 m/s, 31° | - | - |
| 1778014346 | 12.78° C | 70% | 991.7 hPa | - | 5.36 m/s, 28° | - | - |
| 1778014226 | 12.78° C | 70% | 991.8 hPa | - | 4.92 m/s, 27° | - | - |
| 1778014106 | 12.78° C | 70% | 991.7 hPa | - | 4.47 m/s, 27° | - | - |
| 1778013985 | 12.78° C | 71% | 991.7 hPa | - | 4.92 m/s, 33° | - | - |
| 1778013866 | 12.78° C | 71% | 991.8 hPa | - | 4.92 m/s, 28° | - | - |
| 1778013746 | 12.78° C | 71% | 991.8 hPa | - | 4.47 m/s, 31° | - | - |
| 1778013626 | 13.33° C | 71% | 991.8 hPa | - | 4.47 m/s, 30° | - | - |
| 1778013506 | 13.33° C | 71% | 991.8 hPa | - | 4.92 m/s, 28° | - | - |
| 1778013385 | 13.33° C | 71% | 991.8 hPa | - | 4.92 m/s, 28° | - | - |
* Rain since midnight (hover to see other rain measurements)
** Current wind speed in m/s (hover to see current wind gust speed)